| time (UTC) | temp F | wind direction | speed MPH | gust MPH | rain 1hr in | rain 24hr in | rain mn in | humidity % | barometer mb |
| 20260831022630 | 87 | 151 | 3.0 | 7.0 | 0.00 | 0.00 | 0.00 | 57 | 1013.9 |
| 20260831021128 | 88 | 165 | 2.0 | 7.0 | 0.00 | 0.00 | 0.00 | 56 | 1013.7 |
| 20260831015628 | 88 | 169 | 2.0 | 7.0 | 0.00 | 0.00 | 0.00 | 54 | 1013.6 |
| 20260831014825 | 89 | 145 | 2.0 | 11.0 | 0.00 | 0.00 | 0.00 | 52 | 1013.4 |
| 20260831013335 | 90 | 158 | 5.0 | 14.0 | 0.00 | 0.00 | 0.00 | 50 | 1013.4 |
| 20260831011824 | 90 | 169 | 4.0 | 13.0 | 0.00 | 0.00 | 0.00 | 48 | 1013.5 |
| 20260831005627 | 91 | 154 | 9.0 | 18.0 | 0.00 | 0.00 | 0.00 | 46 | 1013.4 |
| 20260831004127 | 92 | 154 | 7.0 | 20.0 | 0.00 | 0.00 | 0.00 | 46 | 1013.2 |
| 20260831002628 | 93 | 178 | 10.0 | 18.0 | 0.00 | 0.00 | 0.00 | 46 | 1013.2 |
| 20260831001126 | 94 | 217 | 7.0 | 14.0 | 0.00 | 0.00 | 0.00 | 45 | 1013.1 |
| 20260830235625 | 94 | 121 | 5.0 | 14.0 | 0.00 | 0.00 | 0.00 | 44 | 1013.1 |
| 20260830234125 | 95 | 149 | 8.0 | 14.0 | 0.00 | 0.00 | 0.00 | 42 | 1013.0 |
| 20260830232627 | 96 | 109 | 3.0 | 16.0 | 0.00 | 0.00 | 0.00 | 41 | 1013.0 |
| 20260830231125 | 96 | 162 | 2.0 | 9.0 | 0.00 | 0.00 | 0.00 | 41 | 1013.0 |
| 20260830225625 | 96 | 114 | 3.0 | 11.0 | 0.00 | 0.00 | 0.00 | 42 | 1013.0 |
| 20260830224124 | 95 | 161 | 2.0 | 9.0 | 0.00 | 0.00 | 0.00 | 43 | 1013.1 |
| 20260830222624 | 95 | 171 | 4.0 | 7.0 | 0.00 | 0.00 | 0.00 | 44 | 1013.1 |
| 20260830221124 | 95 | 114 | 4.0 | 9.0 | 0.00 | 0.00 | 0.00 | 44 | 1013.2 |
| 20260830220318 | 96 | 155 | 7.0 | 18.0 | 0.00 | 0.00 | 0.00 | 42 | 1013.2 |
| 20260830214123 | 96 | 255 | 5.0 | 14.0 | 0.00 | 0.00 | 0.00 | 41 | 1013.2 |
| 20260830212622 | 96 | 159 | 3.0 | 11.0 | 0.00 | 0.00 | 0.00 | 41 | 1013.4 |
| 20260830211122 | 97 | 166 | 4.0 | 11.0 | 0.00 | 0.00 | 0.00 | 42 | 1013.6 |
| 20260830205622 | 97 | 99 | 3.0 | 18.0 | 0.00 | 0.00 | 0.00 | 42 | 1013.9 |
| 20260830204819 | 98 | 49 | 2.0 | 13.0 | 0.00 | 0.00 | 0.00 | 41 | 1014.1 |
| 20260830202621 | 97 | 206 | 3.0 | 13.0 | 0.00 | 0.00 | 0.00 | 40 | 1014.2 |
| 20260830201817 | 98 | 141 | 6.0 | 11.0 | 0.00 | 0.00 | 0.00 | 41 | 1014.5 |
| 20260830195621 | 98 | 80 | 3.0 | 16.0 | 0.00 | 0.00 | 0.00 | 40 | 1014.6 |
| 20260830194120 | 97 | 6 | 4.0 | 14.0 | 0.00 | 0.00 | 0.00 | 41 | 1014.9 |
| 20260830192620 | 96 | 186 | 2.0 | 18.0 | 0.00 | 0.00 | 0.00 | 45 | 1015.2 |
| 20260830191120 | 96 | 176 | 10.0 | 18.0 | 0.00 | 0.00 | 0.00 | 44 | 1015.5 |
| 20260830185620 | 97 | 131 | 5.0 | 11.0 | 0.00 | 0.00 | 0.00 | 42 | 1015.7 |
| 20260830184824 | 96 | 94 | 3.0 | 11.0 | 0.00 | 0.00 | 0.00 | 46 | 1015.7 |
| 20260830182618 | 96 | 145 | 5.0 | 14.0 | 0.00 | 0.00 | 0.00 | 45 | 1016.1 |
| 20260830181118 | 95 | 182 | 4.0 | 11.0 | 0.00 | 0.00 | 0.00 | 47 | 1016.5 |
| 20260830180314 | 94 | 63 | 3.0 | 11.0 | 0.00 | 0.00 | 0.00 | 49 | 1016.6 |
| 20260830174118 | 94 | 117 | 5.0 | 11.0 | 0.00 | 0.00 | 0.00 | 49 | 1016.9 |
| 20260830172617 | 93 | 252 | 2.0 | 14.0 | 0.00 | 0.00 | 0.00 | 53 | 1017.1 |
| 20260830171117 | 92 | 271 | 2.0 | 9.0 | 0.00 | 0.00 | 0.00 | 55 | 1017.2 |
| 20260830165616 | 92 | 118 | 5.0 | 9.0 | 0.00 | 0.00 | 0.00 | 54 | 1017.3 |
| 20260830164117 | 92 | 247 | 5.0 | 9.0 | 0.00 | 0.00 | 0.00 | 59 | 1017.3 |
| 20260830162615 | 90 | 313 | 2.0 | 9.0 | 0.00 | 0.00 | 0.00 | 63 | 1017.4 |
| 20260830161116 | 90 | 314 | 3.0 | 7.0 | 0.00 | 0.00 | 0.00 | 62 | 1017.3 |
| 20260830155616 | 89 | 168 | 2.0 | 9.0 | 0.00 | 0.00 | 0.00 | 64 | 1017.4 |
| 20260830154115 | 89 | 166 | 4.0 | 9.0 | 0.00 | 0.00 | 0.00 | 66 | 1017.4 |
| 20260830152615 | 87 | 214 | 2.0 | 7.0 | 0.00 | 0.00 | 0.00 | 69 | 1017.5 |
| 20260830151115 | 85 | 252 | 1.0 | 9.0 | 0.00 | 0.00 | 0.00 | 71 | 1017.4 |
| 20260830145614 | 85 | 252 | 3.0 | 9.0 | 0.00 | 0.00 | 0.00 | 74 | 1017.3 |
| 20260830144114 | 85 | 252 | 3.0 | 7.0 | 0.00 | 0.00 | 0.00 | 75 | 1017.4 |
| 20260830142614 | 85 | 137 | 2.0 | 9.0 | 0.00 | 0.00 | 0.00 | 76 | 1017.4 |
| 20260830141113 | 83 | 255 | 1.0 | 9.0 | 0.00 | 0.00 | 0.00 | 79 | 1017.4 |
| 20260830135613 | 82 | 220 | 3.0 | 9.0 | 0.00 | 0.00 | 0.00 | 81 | 1017.3 |
| 20260830134819 | 81 | 186 | 1.0 | 5.0 | 0.00 | 0.00 | 0.00 | 84 | 1017.1 |
| 20260830132612 | 80 | 176 | 0.0 | 3.0 | 0.00 | 0.00 | 0.00 | 86 | 1017.1 |
| 20260830131112 | 79 | 176 | 2.0 | 3.0 | 0.00 | 0.00 | 0.00 | 87 | 1017.1 |
| 20260830130321 | 78 | 176 | 1.0 | 2.0 | 0.00 | 0.00 | 0.00 | 88 | 1016.9 |
| 20260830124111 | 77 | 176 | 0.0 | 2.0 | 0.00 | 0.00 | 0.00 | 88 | 1016.8 |
| 20260830123316 | 77 | 176 | 0.0 | 0.0 | 0.00 | 0.00 | 0.00 | 88 | 1016.6 |
| 20260830121111 | 77 | 176 | 0.0 | 2.0 | 0.00 | 0.00 | 0.00 | 88 | 1016.6 |
| 20260830120309 | 77 | 176 | 0.0 | 0.0 | 0.00 | 0.00 | 0.00 | 88 | 1016.5 |
| 20260830114109 | 77 | 176 | 0.0 | 0.0 | 0.00 | 0.00 | 0.00 | 87 | 1016.5 |
| 20260830112611 | 77 | 176 | 1.0 | 2.0 | 0.00 | 0.00 | 0.00 | 87 | 1016.6 |
| 20260830111110 | 77 | 176 | 0.0 | 0.0 | 0.00 | 0.00 | 0.00 | 87 | 1016.4 |
| 20260830105608 | 77 | 176 | 0.0 | 2.0 | 0.00 | 0.00 | 0.00 | 87 | 1016.1 |
| 20260830104108 | 78 | 176 | 0.0 | 0.0 | 0.00 | 0.00 | 0.00 | 87 | 1016.1 |
| 20260830102609 | 78 | 176 | 0.0 | 2.0 | 0.00 | 0.00 | 0.00 | 86 | 1016.0 |
| 20260830101800 | 78 | 176 | 0.0 | 2.0 | 0.00 | 0.00 | 0.00 | 86 | 1015.8 |
| 20260830095608 | 78 | 176 | 0.0 | 0.0 | 0.00 | 0.00 | 0.00 | 86 | 1015.7 |
| 20260830094107 | 78 | 176 | 0.0 | 0.0 | 0.00 | 0.00 | 0.00 | 85 | 1015.9 |
| 20260830092607 | 79 | 176 | 0.0 | 2.0 | 0.00 | 0.00 | 0.00 | 85 | 1015.7 |
| 20260830091106 | 79 | 176 | 0.0 | 2.0 | 0.00 | 0.00 | 0.00 | 84 | 1015.8 |
| 20260830085607 | 79 | 176 | 0.0 | 2.0 | 0.00 | 0.00 | 0.00 | 84 | 1015.8 |
| 20260830084106 | 80 | 176 | 0.0 | 3.0 | 0.00 | 0.00 | 0.00 | 83 | 1015.9 |
| 20260830082606 | 80 | 176 | 1.0 | 3.0 | 0.00 | 0.00 | 0.00 | 82 | 1015.8 |
| 20260830081106 | 80 | 176 | 0.0 | 3.0 | 0.00 | 0.00 | 0.00 | 81 | 1015.8 |
| 20260830075605 | 80 | 176 | 0.0 | 2.0 | 0.00 | 0.00 | 0.00 | 81 | 1015.9 |
| 20260830074104 | 80 | 176 | 0.0 | 2.0 | 0.00 | 0.00 | 0.00 | 80 | 1015.9 |
| 20260830072605 | 81 | 175 | 0.0 | 2.0 | 0.00 | 0.00 | 0.00 | 79 | 1016.1 |
| 20260830071104 | 81 | 176 | 0.0 | 3.0 | 0.00 | 0.00 | 0.00 | 79 | 1016.0 |
| 20260830065603 | 81 | 175 | 1.0 | 3.0 | 0.00 | 0.00 | 0.00 | 77 | 1016.0 |
| 20260830064103 | 82 | 175 | 1.0 | 3.0 | 0.00 | 0.00 | 0.00 | 76 | 1016.0 |
| 20260830062604 | 82 | 175 | 0.0 | 5.0 | 0.00 | 0.00 | 0.00 | 76 | 1015.9 |
| 20260830061103 | 82 | 175 | 2.0 | 7.0 | 0.00 | 0.00 | 0.00 | 75 | 1016.0 |
| 20260830055604 | 82 | 161 | 1.0 | 3.0 | 0.00 | 0.00 | 0.00 | 74 | 1015.9 |
| 20260830054105 | 83 | 161 | 1.0 | 5.0 | 0.00 | 0.00 | 0.00 | 73 | 1015.9 |
| 20260830052605 | 83 | 161 | 2.0 | 13.0 | 0.00 | 0.00 | 0.00 | 73 | 1016.0 |
| 20260830051103 | 83 | 137 | 4.0 | 5.0 | 0.00 | 0.00 | 0.00 | 73 | 1015.9 |
| 20260830045604 | 84 | 176 | 0.0 | 7.0 | 0.00 | 0.00 | 0.00 | 73 | 1015.9 |
| 20260830044102 | 84 | 161 | 3.0 | 9.0 | 0.00 | 0.00 | 0.00 | 73 | 1015.8 |
| 20260830042603 | 85 | 154 | 4.0 | 11.0 | 0.00 | 0.00 | 0.00 | 73 | 1015.9 |
| 20260830041101 | 85 | 164 | 4.0 | 9.0 | 0.00 | 0.00 | 0.00 | 72 | 1015.8 |
| 20260830035603 | 85 | 147 | 3.0 | 11.0 | 0.00 | 0.00 | 0.00 | 71 | 1015.8 |
| 20260830034101 | 86 | 193 | 5.0 | 14.0 | 0.00 | 0.00 | 0.00 | 70 | 1015.7 |
| 20260830033306 | 86 | 142 | 5.0 | 13.0 | 0.00 | 0.00 | 0.00 | 69 | 1015.7 |
| 20260830031101 | 86 | 157 | 3.0 | 14.0 | 0.00 | 0.00 | 0.00 | 69 | 1015.6 |
| 20260830025600 | 87 | 162 | 8.0 | 16.0 | 0.00 | 0.00 | 0.00 | 67 | 1015.5 |
| 20260830024100 | 87 | 149 | 6.0 | 13.0 | 0.00 | 0.00 | 0.00 | 66 | 1015.3 |